Rome, NY

5:05 PM EST on November 16, 2019 (GMT -0500)
Griffiss

Weather History for KRME - October, 2019

Change the Weather History Date:

Tuesday, October 22, 2019

  Actual Average Record
Temperature  
Mean Temperature 54 °F -  
Max Temperature 57 °F 54 °F 82 °F (1979)
Min Temperature 52 °F 38 °F 25 °F (1969)
Degree Days  
Heating Degree Days 10    
Growing Degree Days 4 (Base 50)    
Moisture  
Dew Point 51 °F    
Average Humidity 89    
Maximum Humidity 100    
Minimum Humidity 62    
Precipitation  
Precipitation 1.22 in - - ()
Sea Level Pressure  
Sea Level Pressure 29.90 in    
Wind  
Wind Speed 9 mph (ESE)    
Max Wind Speed 16 mph    
Max Gust Speed 22 mph    
Visibility 7 miles    
Events Rain    
Averages and records for this station are not official NWS values.
T = Trace of Precipitation, MM = Missing Value Source: NWS Daily Summary

Daily Weather History Graph

Daily Weather History Graph

Search for Another Location

Airport or City:

Astronomy

Oct. 22, 2019 Rise Set
Actual Time 7:23 AM EDT 6:07 PM EDT
Civil Twilight 6:54 AM EDT 6:36 PM EDT
Nautical Twilight 6:21 AM EDT 7:10 PM EDT
Astronomical Twilight 5:48 AM EDT 7:43 PM EDT
Moon 12:16 AM EDT (10/22) 3:28 PM EDT (10/22)
Length of Visible Light 11h 42m
Length of Day
10h 44m
Last Quarter, 37% of the Moon is Illuminated
Oct 22
Last Quarter
Oct 27
New
Nov 4
First Quarter
Nov 12
Full
Nov 19
Last Quarter

Hourly Weather History & Observations

Time (EDT) Temp. Dew Point Humidity Pressure Visibility Wind Dir Wind Speed Gust Speed Precip Events Conditions
12:53 AM 53.1 °F 48.0 °F 83% 30.05 in 10.0 mi ESE 11.5 mph - N/A   Clear
1:53 AM 53.1 °F 46.9 °F 80% 30.03 in 10.0 mi ESE 11.5 mph 19.6 mph N/A   Clear
2:53 AM 52.0 °F 48.0 °F 86% 30.06 in 10.0 mi SSE 9.2 mph - N/A   Clear
3:53 AM 52.0 °F 48.0 °F 86% 30.03 in 10.0 mi SSE 8.1 mph - N/A   Clear
5:53 AM 53.1 °F 48.0 °F 83% 30.01 in 10.0 mi SE 8.1 mph - N/A   Clear
6:53 AM 52.0 °F 48.0 °F 86% 30.01 in 10.0 mi SE 9.2 mph - N/A   Clear
7:53 AM 53.1 °F 46.9 °F 80% 29.96 in 10.0 mi SE 10.4 mph 21.9 mph N/A   Clear
8:53 AM 55.0 °F 45.0 °F 69% 29.99 in 10.0 mi SE 10.4 mph - N/A   Mostly Cloudy
9:53 AM 55.0 °F 42.1 °F 62% 29.95 in 10.0 mi ESE 15.0 mph - N/A   Overcast
10:53 AM 55.9 °F 44.1 °F 64% 29.95 in 10.0 mi ESE 10.4 mph - N/A   Overcast
11:53 AM 57.0 °F 46.0 °F 67% 29.94 in 10.0 mi ESE 9.2 mph - 0.00 in Rain Light Rain
12:53 PM 55.9 °F 48.0 °F 75% 29.92 in 10.0 mi ESE 10.4 mph - 0.00 in   Overcast
1:04 PM 55.9 °F 48.9 °F 77% 29.90 in 10.0 mi East 9.2 mph - N/A   Overcast
1:53 PM 57.0 °F 50.0 °F 77% 29.87 in 10.0 mi ESE 11.5 mph 21.9 mph 0.00 in Rain Light Rain
2:53 PM 55.9 °F 50.0 °F 80% 29.85 in 10.0 mi East 12.7 mph - 0.00 in   Overcast
3:53 PM 57.0 °F 50.0 °F 77% 29.84 in 10.0 mi ESE 16.1 mph 21.9 mph N/A   Overcast
4:53 PM 55.9 °F 51.1 °F 84% 29.85 in 10.0 mi ESE 15.0 mph - 0.00 in Rain Light Rain
5:36 PM 54.0 °F 53.1 °F 97% 29.85 in 2.0 mi ESE 12.7 mph - 0.10 in Rain Heavy Rain
5:46 PM 54.0 °F 53.1 °F 97% 29.85 in 3.0 mi ESE 11.5 mph - 0.13 in Rain Heavy Rain
5:53 PM 54.0 °F 53.1 °F 97% 29.85 in 4.0 mi ESE 9.2 mph - 0.15 in Rain Heavy Rain
6:04 PM 54.0 °F 53.1 °F 97% 29.86 in 5.0 mi Variable 4.6 mph - 0.04 in Rain Heavy Rain
6:14 PM 54.0 °F 53.1 °F 97% 29.86 in 2.5 mi Variable 3.5 mph - 0.11 in Rain Heavy Rain
6:30 PM 53.1 °F 53.1 °F 100% 29.86 in 3.0 mi WSW 4.6 mph - 0.21 in Rain Heavy Rain
6:53 PM 53.1 °F 53.1 °F 100% 29.86 in 3.0 mi SE 5.8 mph - 0.31 in Rain Heavy Rain
7:00 PM 53.1 °F 53.1 °F 100% 29.86 in 2.5 mi SE 4.6 mph - 0.03 in Rain Heavy Rain
7:07 PM 54.0 °F 53.1 °F 97% 29.85 in 3.0 mi East 5.8 mph - 0.05 in Rain Heavy Rain
7:17 PM 54.0 °F 54.0 °F 100% 29.84 in 2.5 mi East 5.8 mph - 0.10 in Rain Heavy Rain
7:25 PM 54.0 °F 54.0 °F 100% 29.84 in 3.0 mi East 5.8 mph - 0.13 in Rain Heavy Rain
7:53 PM 54.0 °F 54.0 °F 100% 29.85 in 2.5 mi SE 4.6 mph - 0.26 in Rain Heavy Rain
8:06 PM 54.0 °F 54.0 °F 100% 29.86 in 3.0 mi ESE 5.8 mph - 0.08 in Rain Heavy Rain
8:53 PM 54.0 °F 54.0 °F 100% 29.84 in 4.0 mi East 9.2 mph - 0.30 in Rain Rain
9:13 PM 54.0 °F 54.0 °F 100% 29.83 in 4.0 mi East 9.2 mph - 0.05 in Rain Heavy Rain
9:42 PM 54.0 °F 54.0 °F 100% 29.84 in 7.0 mi Calm Calm - 0.09 in Rain Rain
9:53 PM 54.0 °F 54.0 °F 100% 29.84 in 5.0 mi Calm Calm - 0.11 in Rain Rain
10:53 PM 54.0 °F 54.0 °F 100% 29.84 in 8.0 mi ESE 8.1 mph - 0.06 in Rain Rain
11:53 PM 54.0 °F 54.0 °F 100% 29.82 in 10.0 mi East 9.2 mph - 0.03 in Rain Light Rain